Regional Weather Roundup
Issued by NWS

Home | Current Version | Previous Version | Graphics & Text | Print | Product List | Glossary On
Versions: 1 2 3 4 5 6 7 8 9 10 11 12 13 14 15 16 17 18 19 20 21 22 23 24 25 26 27 28 29 30 31 32 33 34 35 36 37 38 39 40 41 42 43 44 45 46 47 48 49 50
000
ASUS45 KCYS 170510
RWRWY

WYOMING REGIONAL WEATHER ROUNDUP
NATIONAL WEATHER SERVICE CHEYENNE WY
1100 PM MDT WED AUG 16 2017

NOTE:  "FAIR" INDICATES FEW OR NO CLOUDS BELOW 12,000 FEET
WITH NO SIGNIFICANT WEATHER AND/OR OBSTRUCTIONS TO VISIBILITY.

WYZ001-170600-
YELLOWSTONE NATIONAL PARK

CITY           SKY/WX    TMP DP  RH WIND       PRES   REMARKS
LK YELLOWSTONE   N/A     44  39  82 CALM      30.27S
W YELLOWSTONE  NOT AVBL

$$
WYZ002>013-054>058-071-098>099-170600-
NORTHERN WYOMING

CITY           SKY/WX    TMP DP  RH WIND       PRES   REMARKS
JACKSON        FAIR      48  31  51 CALM      30.19R
CODY           FAIR      68  43  40 SW10      30.06S
GREYBULL       FAIR      71  39  31 E3        29.96S
WORLAND        FAIR      62  43  49 CALM      29.99R
SHERIDAN       FAIR      66  44  45 S7        29.96F
BUFFALO        FAIR      66  39  37 W8        30.04F
GILLETTE       FAIR      65  36  34 S14       30.00S
HULETT         FAIR      63  45  51 S8        30.02S
NEWCASTLE      FAIR      64  43  45 E10G21    30.05S

$$
WYZ014>020-022>026-101>103-170600-
CENTRAL WYOMING

CITY           SKY/WX    TMP DP  RH WIND       PRES   REMARKS
BIG PINEY      FAIR      47  40  76 NW10      30.23S
PINEDALE       FAIR      50  37  62 NW3       30.25R
DUBOIS         FAIR      54  34  47 NW7       30.21S
LANDER           N/A    N/A N/A N/A MISG      30.08S
RIVERTON       MOCLDY    68  40  35 W9        30.09R
CASPER         FAIR      56  44  64 W7        30.09S
DOUGLAS        FAIR      59  43  55 E10       30.09F

$$
WYZ021-027>030-104>119-170600-
SOUTHERN WYOMING

CITY           SKY/WX    TMP DP  RH WIND       PRES   REMARKS
EVANSTON       FAIR      59  40  49 SE6       30.26R
KEMMERER         N/A     55  36  47 N6        30.26S
FORT BRIDGER   FAIR      63  34  34 SW8       30.28R
ROCK SPRINGS   MOCLDY    64  38  38 SW14      30.21R
RAWLINS        FAIR      58  42  55 VRB7      30.22R
SARATOGA       FAIR      54  43  66 SE7       30.25S
LARAMIE        FAIR      52  41  66 S9        30.25S
CHEYENNE       FAIR      59  45  59 SW8       30.20S
TORRINGTON     FAIR      61  48  62 CALM      30.07S
PINE BLUFFS    FAIR      50  46  87 SW3       30.16S

$$



USA.gov is the U.S. government's official web portal to all federal, state and local government web resources and services.